Voltar ao catálogo

SL-12 R/B(2)

AtivoGEO
NORAD 23683·ROCKET BODY·🇷🇺 Russia

Lançado Oct 11, 1995 de Baikonur Cosmodrome

Loading…

TLE

AtualizadoSource: Space-Track

Época: Aug 29, 2026, 21:28 UTC

1 23683U 95054D   26241.89445222  .00000091  00000-0  00000+0 0  9995
2 23683  15.0066 358.4720 0018278 105.8450 247.5853  1.00173623113103

Acompanhe SL-12 R/B(2) em tempo real com AllMySat

Download on the App Store